Showing default

COSMOS 1564, 15003

Orbit data source: Space-Track

COSMOS 1564, 15003 is a payload satellite owned by GUKOS (CIS) in LEO that was launched on Mon, 28 May 1984 UTC via a KOSMOS 11K65M launch vehicle from the Plesetsk Missile And Space Complex (PKMTR). Payload-class satellites include a variety of spacecraft equipped with specific instruments for various scientific and technological missions. These include communications satellites like Starlink; space stations such as the ISS; scientific satellites like the Hubble; Earth observation satellites from companies like Planet Labs, Umbra, and HawkEye 360; GPS; miniature CubeSats for education and research; and military/defense satellites.

Loading next visibility...
Identifier
15003, 1984-052F
Orbit
LEO
Last TLE update
12 hours ago
Origin
Manufacturer
NPO PM
Mission
Defense Communications
Bus & Motor
STRELA-1 11F625, Unknown motor
Mass
60 kg wet, 60 kg dry
Launch date (UTC)
1984-05-28 (41 years ago)
Launch vehicle
KOSMOS 11K65M
Launch site
Plesetsk Missile And Space Complex (PKMTR)
Object type
Payload
Rocket body
Debris
Shape & HBR
Sphere, 0.8 m
Radar Cross Section
0.588 m², Medium (>0.1 m² and < 1m²)

Expand to show TLE details & history

TLE from 12 hours ago
0 COSMOS 1564
1 15003U 84052F   25183.63186844 -.00000006  00000-0  62357-4 0  9991
2 15003  74.0136 285.9826 0032449 115.5107 351.1669 12.53578453880464
Epoch: 2025-07-02T15:09Z
TLE epoch observation values (Epoch: 2025-07-02T15:09:53.433Z)
Latitude
67.18435°
Longitude
-85.06055°
Altitude
1,435.724 km
Speed
7.161 km/s
True Right ascension
04h 13m 17s
True Declination
67° 04' 19"
Sunlit
Object was in daylight at epoch
Visualization orbit readout
Latitude
38.03839°
Longitude
-55.93831°
Altitude
1,431.423 km
Speed
7.16 km/s
Apparent Right ascension
04h 35m 37s
Apparent Declination
4° 10' 02"
Sunlit
Object is in daylight
Visualization observer readout
Local Sidereal Time
14:35:05
Azimuth
320.586° NNW
Elevation
-37.949°
Doppler factor
1
Orbital elements
Apogee altitude
1,472.788 km
Perigee altitude
1,422.002 km
Semi-major axis
7,825.532 km
Eccentricity
0.00324
Inclination
74.0136°
RAAN
285.9826°
Arg. of periapsis
115.5107°
True anomaly
Unknown
Mean anomaly
351.1669°
Eccentric anomaly
Unknown
Mean motion
3.13525 °/min
Orbital period
114.82 mins
BSTAR
0.000062357
Loading maneuver chart data...
Loading SW <> Apogee altitude chart data...
Loading historical data...
Loading historical data...
Loading historical data...
Loading historical data...
Loading historical data...
Loading historical data...
Loading historical data...

COSMOS 1564 Visibility forecast

Observer location: undefined°, undefined°

Span
Click to sort rows by Start time (UTC) header in descending order
Start Az.
Max El. time (UTC)
Max El. Az.
Max El.
End time (UTC)
End Az.
7 mins2025-07-03 06:04:00.231Z114.39° SE2025-07-03 06:08:00.231Z84.695° E14.477°2025-07-03 06:11:00.231Z62.714° ENE
15 mins2025-07-03 07:56:00.231Z193.008° SSW2025-07-03 08:03:00.231Z153.676° SSE44.662°2025-07-03 08:11:00.231Z20.65° NNE
11 mins2025-07-03 09:57:00.231Z268.981° W2025-07-03 10:02:00.231Z311.267° NW20.947°2025-07-03 10:08:00.231Z356.924° N
9 mins2025-07-03 16:06:00.231Z17.352° NNE2025-07-03 16:10:00.231Z49.961° ENE18.06°2025-07-03 16:15:00.231Z88.395° E
16 mins2025-07-03 18:01:00.231Z342.548° N2025-07-03 18:08:00.231Z18.566° NNE44.532°2025-07-03 18:17:00.231Z160.058° S
8 mins2025-07-03 20:01:00.231Z298.577° NW2025-07-03 20:05:00.231Z265.995° W17.649°2025-07-03 20:09:00.231Z235.312° WSW
|